Station CHSV3 - 9751364 - Christiansted Harbor, St. Croix, VI Image indicating link to RSS feed of recent meteorological observations for station CHSV3


Conditions at CHSV3 as of
(9:18 am AST)
1318 GMT on 07/20/2024:
     

Click on the graph icon in the table below to see a time series plot of the last five days of that observation.

5-day plot - Wind Direction Wind Direction (WDIR): E ( 90 deg true )
5-day plot - Wind Speed Wind Speed (WSPD): 4.1 kts
5-day plot - Wind Gust Wind Gust (GST): 12.0 kts
5-day plot - Atmospheric Pressure Atmospheric Pressure (PRES):30.05 in
5-day plot - Air Temperature Air Temperature (ATMP): 86.7 °F
5-day plot - Water Temperature Water Temperature (WTMP): 84.9 °F
5-day plot - Wind Speed at 10 Meters Wind Speed at 10 meters (WSPD10M): 3.9 kts
5-day plot - Wind Speed at 20 Meters Wind Speed at 20 meters (WSPD20M): 3.9 kts
5-day plot -  Wind Speed, Wind Gust and Atmospheric Pressure Combined plot of Wind Speed, Gust, and Air Pressure
NOS Water Level Observation Network Water Level
Previous observations
TIME
(AST)
5-day plot - Wind Direction
WDIR
 
5-day plot - Wind Speed
WSPD
kts
5-day plot - Wind Gust
GST
kts
5-day plot - Wave Height
WVHT
ft
5-day plot - Dominant Wave Period
DPD
sec
5-day plot - Average Wave Period
APD
sec
5-day plot - Mean Wave Direction
MWD
 
5-day plot - Atmospheric Pressure
PRES
in
5-day plot - Pressure Tendency
PTDY
in
5-day plot - Air Temperature
ATMP
°F
5-day plot - Water Temperature
WTMP
°F
5-day plot - Dew Point
DEWP
°F
5-day plot - Salinity
SAL
psu
5-day plot - Visibility
VIS
nmi
5-day plot - Tide (above MLLW)
TIDE
ft
2024-07-20 09:12 am E 7.0 11.1----30.05- 87.1 84.9----
2024-07-20 09:06 am E 4.1 11.1----30.05- 87.4 84.9----
2024-07-20 09:00 am E 4.1 7.0----30.04+0.03 86.4 84.9----
2024-07-20 08:54 amENE 5.1 11.1----30.04- 85.6 84.9----
2024-07-20 08:48 am E 2.9 11.1----30.04- 86.2 84.9----
2024-07-20 08:42 am E 5.1 11.1----30.04- 86.4 84.9----
2024-07-20 08:36 am E 5.1 8.9----30.04- 86.2 84.9----
2024-07-20 08:30 am E 4.1 9.9----30.04- 86.4 84.9----
2024-07-20 08:24 am E 5.1 11.1----30.04- 86.2 84.9----
2024-07-20 08:18 am E 4.1 11.1----30.04-- 84.9----
2024-07-20 08:12 am E 2.9 9.9----30.04-- 84.9----
2024-07-20 08:06 am E 4.1 9.9----30.04-- 84.9----
2024-07-20 08:00 am E 4.1 8.0----30.04+0.04 86.2 84.9----
2024-07-20 07:54 am E 5.1 9.9----30.04- 86.0 84.9----
2024-07-20 07:48 amENE 5.1 9.9----30.03-------
2024-07-20 07:42 am E 5.1 8.9----30.03-------
2024-07-20 07:36 am E 5.1 9.9----30.03-------
2024-07-20 07:30 am E 2.9 9.9----30.03- 85.3 84.9----
2024-07-20 07:24 amENE 4.1 8.0----30.03- 85.1 84.9----
2024-07-20 07:18 am E 4.1 9.9----30.03- 84.9 84.9----
2024-07-20 07:12 am E 4.1 8.0----30.03- 84.9 84.9----
2024-07-20 07:06 amENE 4.1 8.0----30.03- 84.6 84.9----
2024-07-20 07:00 am-------30.03+0.04 84.4 84.9----
2024-07-20 06:54 am-------30.03- 84.2 84.9----
2024-07-20 06:48 am E 4.1 8.9----30.03-- 84.9----
2024-07-20 06:42 am E 4.1 8.0----30.03-- 84.9----
2024-07-20 06:36 amENE 4.1 8.0----30.03-- 84.9----
2024-07-20 06:30 am-------30.02- 83.5 84.9----
2024-07-20 06:24 am-------30.02- 83.1 84.9----
2024-07-20 06:18 am E 2.9 6.0----30.02- 83.1 84.9----
2024-07-20 06:12 am E 2.9 5.1----30.02- 83.1 84.9----
2024-07-20 06:06 am E 2.9 7.0----30.02- 83.1 84.9----
2024-07-20 06:00 am E 6.0 8.9----30.02+0.02 83.3 84.9----
2024-07-20 05:54 am E 4.1 8.0----30.01- 83.5 84.9----
2024-07-20 05:48 am E 5.1 9.9----30.01- 83.5 84.9----
2024-07-20 05:42 amENE 4.1 8.0----30.01- 83.5 84.9----
2024-07-20 05:36 am E 6.0 8.9----30.01- 83.5 84.9----
2024-07-20 05:30 am E 4.1 7.0----30.01- 83.3 84.9----
2024-07-20 05:24 amENE 2.9 8.0----30.01- 83.3 84.9----
2024-07-20 05:18 am E 4.1 11.1----30.00- 83.3 84.9----
2024-07-20 05:12 am E 4.1 8.9----30.00- 83.3 84.9----
2024-07-20 05:06 amENE 4.1 9.9----30.00- 83.3 84.9----
2024-07-20 05:00 am E 4.1 11.1----30.00+0.00 83.1 84.9----
2024-07-20 04:54 am E 2.9 9.9----29.99- 83.1 85.1----
2024-07-20 04:48 am E 2.9 5.1----29.99-- 85.1----
2024-07-20 04:42 am E 2.9 8.9----29.99-- 85.1----
2024-07-20 04:36 am E 5.1 8.9----29.99-- 85.1----
2024-07-20 04:30 am E 4.1 8.0----29.99- 83.1 85.1----
2024-07-20 04:24 am E 5.1 8.0----29.99- 83.1 85.1----
2024-07-20 04:18 am E 2.9 8.0----29.99-- 85.1----
2024-07-20 04:12 am E 4.1 11.1----29.98-- 85.1----
2024-07-20 04:06 am E 5.1 9.9----29.99-- 85.1----
2024-07-20 04:00 am E 4.1 8.0----29.99-0.03 83.1 85.1----
2024-07-20 03:54 am E 5.1 8.0----29.99- 83.1 85.1----
2024-07-20 03:48 amENE 6.0 8.9----29.99-- 85.1----
2024-07-20 03:42 amENE 5.1 8.9----29.99-- 85.1----
2024-07-20 03:36 am E 4.1 11.1----29.99-- 85.1----
2024-07-20 03:30 am E 5.1 12.0----29.99- 83.1 85.1----
2024-07-20 03:24 am E 2.9 7.0----29.99- 83.1 85.1----
2024-07-20 03:18 am-------29.99- 83.3 85.1----
2024-07-20 03:12 am-------29.99- 83.5 85.1----
2024-07-20 03:06 am-------29.99- 83.3 85.1----
2024-07-20 03:00 am E 2.9 7.0----29.99-0.05 83.3 85.1----
2024-07-20 02:54 am E 2.9 8.0----29.99- 83.3 85.1----
2024-07-20 02:48 am-------30.00- 83.3 85.3----
2024-07-20 02:42 am-------30.00- 83.3 85.3----
2024-07-20 02:36 am-------30.00- 83.3 85.3----
2024-07-20 02:30 am E 4.1 8.9----30.00- 83.3 85.3----
2024-07-20 02:24 am E 2.9 7.0----30.00- 83.3 85.3----
2024-07-20 02:18 am E 5.1 8.0----30.00- 83.1 85.3----
2024-07-20 02:12 am E 4.1 8.0----30.00- 83.1 85.3----
2024-07-20 02:06 am E 1.9 8.9----30.00- 83.1 85.3----
2024-07-20 02:00 am E 4.1 8.0----30.00-0.05 83.3 85.3----
2024-07-20 01:54 amENE 4.1 8.9----30.01- 83.3 85.3----
2024-07-20 01:48 am E 1.9 6.0----30.01- 83.3 85.3----
2024-07-20 01:42 am E 4.1 7.0----30.01- 83.3 85.3----
2024-07-20 01:36 amENE 4.1 7.0----30.01- 83.1 85.3----
2024-07-20 01:30 amENE 4.1 7.0----30.01- 83.1 85.3----
2024-07-20 01:24 am E 2.9 5.1----30.01- 82.9 85.3----
2024-07-20 01:18 am E 2.9 7.0----30.01- 83.1 85.3----
2024-07-20 01:12 am E 2.9 7.0----30.01- 82.9 85.3----
2024-07-20 01:06 am E 4.1 7.0----30.01- 82.9 85.5----
2024-07-20 01:00 amENE 2.9 6.0----30.02-0.04 82.9 85.5----
2024-07-20 12:54 amENE 2.9 7.0----30.02- 82.9 85.5----
2024-07-20 12:48 am E 1.9 6.0----30.02-- 85.5----
2024-07-20 12:42 am E 4.1 7.0----30.02-- 85.5----
2024-07-20 12:36 am E 2.9 8.9----30.03-- 85.5----
2024-07-20 12:30 am E 1.9 6.0----30.03- 82.6 85.5----
2024-07-20 12:24 am E 2.9 8.0----30.03- 82.2 85.5----
2024-07-20 12:18 am E 2.9 5.1----30.03- 81.9 85.5----
2024-07-20 12:12 am E 1.9 6.0----30.03- 81.7 85.5----
2024-07-20 12:06 amENE 4.1 6.0----30.04- 81.7 85.5----
2024-07-20 12:00 amENE 4.1 11.1----30.04+0.00 81.7 85.5----
2024-07-19 11:54 pmENE 2.9 9.9----30.04- 82.0 85.5----
2024-07-19 11:48 pm E 5.1 12.0----30.05- 82.6 85.5----
2024-07-19 11:42 pm E 6.0 12.0----30.05- 82.8 85.5----
2024-07-19 11:36 pm E 4.1 9.9----30.05- 83.7 85.5----
2024-07-19 11:30 pm E 4.1 14.0----30.05- 83.7 85.5----
2024-07-19 11:24 pmENE 4.1 8.0----30.05- 83.7 85.6----
2024-07-19 11:18 pm E 2.9 8.0----30.05- 83.5 85.6----
2024-07-19 11:12 pmENE 5.1 8.9----30.05- 83.5 85.6----
2024-07-19 11:06 pm E 5.1 9.9----30.05- 83.5 85.6----
2024-07-19 11:00 pmENE 4.1 8.0----30.06+0.03 83.5 85.6----
2024-07-19 10:54 pm E 2.9 8.0----30.06- 83.5 85.6----
2024-07-19 10:48 pm E 2.9 8.0----30.06-- 85.6----
2024-07-19 10:42 pmENE 4.1 7.0----30.06-- 85.8----
2024-07-19 10:36 pmENE 4.1 8.9----30.06-- 85.8----
2024-07-19 10:30 pm E 5.1 9.9----30.06- 83.5 85.8----
2024-07-19 10:24 pmENE 5.1 8.0----30.06- 83.5 85.8----
2024-07-19 10:18 pm E 2.9 7.0----30.06- 83.3 85.8----
2024-07-19 10:12 pm E 4.1 9.9----30.06- 83.5 85.8----
2024-07-19 10:06 pm E 4.1 9.9----30.06- 83.5 85.8----
2024-07-19 10:00 pm E 1.9 7.0----30.06+0.04 83.5 85.8----
2024-07-19 09:54 pm NE 1.9 8.0----30.06- 83.5 85.8----
2024-07-19 09:48 pm E 2.9 11.1----30.05- 83.5 85.8----
2024-07-19 09:42 pmENE 4.1 8.0----30.05- 83.5 86.0----
2024-07-19 09:36 pm E 2.9 7.0----30.05- 83.5 86.0----
2024-07-19 09:30 pm E 1.9 8.9----30.05- 83.5 86.0----
2024-07-19 09:24 pm E 4.1 8.9----30.05- 83.5 86.0----
2024-07-19 09:18 pmENE 5.1 8.9----30.04- 83.5 86.0----
2024-07-19 09:12 pmENE 1.9 8.0----30.04- 83.3 86.0----
2024-07-19 09:06 pm E 4.1 8.0----30.04- 83.3 86.2----
2024-07-19 09:00 pmENE 1.0 7.0----30.03+0.04 83.3 86.2----
2024-07-19 08:54 pm E 1.9 5.1----30.03- 83.3 86.2----
2024-07-19 08:48 pm E 4.1 11.1----30.03- 83.3 86.2----
2024-07-19 08:42 pm E 4.1 8.0----30.03- 83.1 86.4----
2024-07-19 08:36 pm E 2.9 7.0----30.03- 83.1 86.4----
2024-07-19 08:30 pmESE 2.9 7.0----30.03- 82.9 86.4----
2024-07-19 08:24 pm E 2.9 7.0----30.03- 82.9 86.4----
2024-07-19 08:18 pm E 4.1 8.9----30.03-- 86.5----
2024-07-19 08:12 pm E 4.1 8.0----30.03-- 86.5----
2024-07-19 08:06 pm E 2.9 6.0----30.02-- 86.5----
2024-07-19 08:00 pm E 1.9 6.0----30.02+0.04 82.6 86.5----
2024-07-19 07:54 pm E 2.9 7.0----30.02- 82.6 86.5----
2024-07-19 07:48 pmENE 5.1 8.0----30.02- 82.4 86.5----
2024-07-19 07:42 pm- 0.0 2.9----30.03- 82.4 86.5----
2024-07-19 07:36 pmENE 1.0 5.1----30.02- 82.4 86.5----
2024-07-19 07:30 pm E 1.9 5.1----30.02- 82.2 86.5----
2024-07-19 07:24 pm E 1.9 5.1----30.01- 82.2 86.5----
2024-07-19 07:18 pmENE 1.9 5.1----30.01- 82.0 86.7----
2024-07-19 07:12 pm E 1.9 6.0----30.01- 82.2 86.7----
2024-07-19 07:06 pm E 2.9 6.0----30.02- 82.8 86.7----
2024-07-19 07:00 pm E 2.9 6.0----30.01+0.02- 86.7----
2024-07-19 06:54 pm E 1.9 6.0----30.01-- 86.7----
2024-07-19 06:48 pm E 1.9 6.0----30.01- 82.6 86.7----
2024-07-19 06:42 pm E 5.1 8.0----30.01- 82.6 86.7----
2024-07-19 06:36 pmENE 1.9 9.9----30.00- 82.6 86.7----
2024-07-19 06:30 pm E 4.1 8.9----30.00-- 86.7----
2024-07-19 06:24 pm E 4.1 7.0----30.00-- 86.7----
2024-07-19 06:18 pm E 4.1 8.0----30.00-- 86.7----
2024-07-19 06:12 pm E 4.1 8.9----30.00-- 86.7----
2024-07-19 06:06 pm E 2.9 8.0----29.99-- 86.7----
2024-07-19 06:00 pm E 4.1 11.1----29.99-0.01 84.0 86.7----
2024-07-19 05:54 pmENE 5.1 8.9----29.99- 84.2 86.7----
2024-07-19 05:48 pmENE 2.9 6.0----29.99- 84.2 86.7----
2024-07-19 05:42 pm E 4.1 9.9----29.99- 84.4 86.7----
2024-07-19 05:36 pmENE 4.1 9.9----29.98- 84.4 86.7----
2024-07-19 05:30 pmENE 4.1 8.9----29.98- 84.6 86.7----
2024-07-19 05:24 pm E 5.1 11.1----29.98- 84.7 86.7----
2024-07-19 05:18 pmENE 4.1 11.1----29.98- 84.7 86.7----
2024-07-19 05:12 pmENE 5.1 11.1----29.98- 84.7 86.7----
2024-07-19 05:06 pmENE 4.1 8.9----29.98- 84.7 86.7----
2024-07-19 05:00 pm E 4.1 8.9----29.98-0.03 84.7 86.7----
2024-07-19 04:54 pm E 1.9 6.0----29.98- 85.3 86.7----
2024-07-19 04:48 pm E 1.9 8.0----29.98-- 86.7----
2024-07-19 04:42 pm E 4.1 7.0----29.98-- 86.7----
2024-07-19 04:36 pm E 4.1 7.0----29.98-- 86.7----
2024-07-19 04:30 pm E 5.1 9.9----29.98- 85.6 86.5----
2024-07-19 04:24 pmESE 4.1 8.9----29.99- 86.2 86.5----
2024-07-19 04:18 pm E 2.9 7.0----29.99- 85.6 86.5----
2024-07-19 04:12 pm E 5.1 8.9----29.99- 84.9 86.5----
2024-07-19 04:06 pm E 5.1 8.9----29.99- 84.7 86.5----
2024-07-19 04:00 pm E 6.0 11.1----29.99-0.04 84.6 86.5----
2024-07-19 03:54 pm E 5.1 11.1----29.99- 84.4 86.5----
2024-07-19 03:48 pm E 2.9 8.0----29.99- 84.4 86.5----
2024-07-19 03:42 pm E 4.1 8.9----29.99- 84.2 86.5----
2024-07-19 03:36 pm E 4.1 7.0----30.00- 84.2 86.5----
2024-07-19 03:30 pm E 4.1 6.0----30.00- 84.0 86.5----
2024-07-19 03:24 pm E 1.9 8.0----30.00- 84.0 86.5----
2024-07-19 03:18 pmESE 5.1 8.0----30.00- 83.7 86.5----
2024-07-19 03:12 pmESE 4.1 7.0----30.01- 83.3 86.4----
2024-07-19 03:06 pmESE 4.1 8.0----30.01- 82.9 86.4----
2024-07-19 03:00 pmESE 5.1 8.0----30.01-0.02 82.9 86.4----
2024-07-19 02:54 pmESE 5.1 8.9----30.01- 82.6 86.4----
2024-07-19 02:48 pmESE 5.1 8.9----30.01- 82.2 86.4----
2024-07-19 02:42 pmESE 6.0 9.9----30.01- 81.9 86.4----
2024-07-19 02:36 pmESE 7.0 11.1----30.01- 81.5 86.4----
2024-07-19 02:30 pm SE 13.0 22.0----30.01- 82.4 86.4----
2024-07-19 02:24 pm E 7.0 14.0----30.01- 87.3 86.4----
2024-07-19 02:18 pm E 5.1 15.9----30.01- 86.7 86.4----
2024-07-19 02:12 pm E 5.1 12.0----30.01- 86.5 86.4----
2024-07-19 02:06 pm E 5.1 12.0----30.01- 85.8 86.4----
2024-07-19 02:00 pm E 8.0 13.0----30.01-0.02 85.3 86.2----
2024-07-19 01:54 pm E 8.0 12.0----30.02- 85.6 86.2----
2024-07-19 01:48 pm E 6.0 14.0----30.02- 84.9 86.2----
2024-07-19 01:42 pm E 4.1 8.0----30.02- 83.7 86.2----
2024-07-19 01:36 pm E 4.1 7.0----30.02- 82.9 86.2----
2024-07-19 01:30 pm E 2.9 6.0----30.02- 82.6 86.2----
2024-07-19 01:24 pmENE 4.1 7.0----30.02- 81.9 86.2----
2024-07-19 01:18 pmESE 2.9 8.0----30.02- 81.7 86.0----
2024-07-19 01:12 pmESE 2.9 9.9----30.02- 80.8 86.0----
2024-07-19 01:06 pm E 2.9 11.1----30.03- 80.4 86.0----
2024-07-19 01:00 pmESE 6.0 12.0----30.03+0.00 81.0 86.0----
2024-07-19 12:54 pm E 5.1 17.1----30.03- 81.7 86.0----
2024-07-19 12:48 pm E 6.0 14.0----30.02- 88.3 86.0----
2024-07-19 12:42 pm E 8.9 15.0----30.02- 87.8 86.0----
2024-07-19 12:36 pmENE 7.0 15.0----30.02- 88.3 86.0----
2024-07-19 12:30 pm E 6.0 12.0----30.02- 88.7 86.0----
2024-07-19 12:24 pm E 5.1 15.9----30.02- 88.5 86.0----
2024-07-19 12:18 pm E 8.9 15.9----30.02- 88.0 85.8----
2024-07-19 12:12 pm E 8.9 15.0----30.03- 88.3 85.8----
2024-07-19 12:06 pmESE 6.0 13.0----30.03- 88.2 85.8----
2024-07-19 12:00 pm E 7.0 12.0----30.03+0.01 87.1 85.8----
2024-07-19 11:54 am E 6.0 13.0----30.03- 86.4 85.8----
2024-07-19 11:48 am E 6.0 12.0----30.03- 88.5 85.8----
2024-07-19 11:42 am E 7.0 19.0----30.03- 88.0 85.8----
2024-07-19 11:36 am E 6.0 15.9----30.03- 89.2 85.6----
2024-07-19 11:30 amESE 11.1 17.1----30.03- 88.9 85.6----
2024-07-19 11:24 am E 8.9 19.0----30.03- 88.3 85.6----
2024-07-19 11:18 am E 8.9 17.1----30.03- 88.2 85.6----
2024-07-19 11:12 am E 9.9 17.1----30.03- 87.8 85.6----
2024-07-19 11:06 am E 6.0 18.1----30.03- 88.5 85.5----
2024-07-19 11:00 am E 8.9 15.0----30.03+0.02 88.0 85.5----
2024-07-19 10:54 amENE 5.1 15.0----30.03- 88.0 85.5----
2024-07-19 10:48 am E 7.0 15.0----30.03- 88.0 85.5----
2024-07-19 10:42 am E 7.0 14.0----30.03- 87.4 85.5----
2024-07-19 10:36 am E 7.0 13.0----30.03- 88.3 85.5----
2024-07-19 10:30 am E 7.0 13.0----30.03- 87.8 85.5----
2024-07-19 10:24 amESE 5.1 14.0----30.03- 88.2 85.3----
2024-07-19 10:18 am E 8.9 15.0----30.03- 86.9 85.3----
2024-07-19 10:12 amESE 4.1 13.0----30.03- 87.1 85.3----
2024-07-19 10:06 am E 7.0 15.0----30.03- 85.5 85.3----
2024-07-19 10:00 am E 8.9 14.0----30.03+0.03 87.3 85.3----
2024-07-19 09:54 am E 6.0 14.0----30.03- 87.3 85.3----
2024-07-19 09:48 am E 8.9 15.0----30.03- 87.3 85.3----
2024-07-19 09:42 amENE 2.9 17.1----30.03- 88.0 85.3----
2024-07-19 09:36 am E 4.1 9.9----30.02- 87.3 85.1----
2024-07-19 09:30 am E 7.0 12.0----30.02- 85.6 85.1----
2024-07-19 09:24 am E 4.1 14.0----30.02- 85.6 85.1----
2024-07-19 09:18 am E 7.0 14.0----30.02- 85.8 85.1----
2024-07-19 09:12 amESE 8.0 14.0----30.02- 86.5 85.1----
2024-07-19 09:06 am E 7.0 13.0----30.02- 87.3 85.1----
2024-07-19 09:00 amESE 5.1 9.9----30.02+0.04 87.6 85.1----
2024-07-19 08:54 am E 4.1 12.0----30.02- 86.7 85.1----